Погода в Фэгэраше

Румыния     45°49′30″N   24°58′37″E
темп.,
°C
ветер,
м/с
пор.,
м/с
влажн.,
%
обл.,
%
осадки,
мм/ч
давл.,
гПа
погр.,
м
17 апреля, сб
сб1700:00−1ююз22745 0.0 102216
03:00−1ю11745 0.0 102210
06:00−2юв117987 0.0 102210
09:00+2св2267100 0.0 1021319
12:00+8ссв325379 0.0 1018833
15:00+11с3347100 0.0 10151152
18:00+11ссз2256100 0.0 1014429
21:00+7юз2261100 0.0 101520
18 апреля, вс
вс1800:00+5ю216979 0.0 101613
03:00+4юв0075100 0.0 101612
06:00+3вюв117986 0.0 101620
09:00+7всв227098 0.0 1015347
12:00+8св2270100 0.3 1014854
15:00+8св3281100 0.8 1015602
18:00+6св2390100 0.3 1015255
21:00+5ссз1195100 0.4 101749
19 апреля, пн
пн1900:00+5з0196100 0.2 101749
03:00+5ссз119698 0.3 101748
06:00+4юз0094100 0.0 101642
09:00+5ссв0090100 0.1 1016182
12:00+6ссв2185100 0.1 1015439
15:00+9ссв2272100 0.4 1013883
18:00+9ссз1173100 0.6 1011701
21:00+7зсз1189100 1.3 101134
20 апреля, вт
вт2000:00+6зюз1194100 1.7 1011111
03:00+5з4697100 2.8 1010368
06:00+4з5798100 1.4 1010440
09:00+4з4898100 6.2 1010851
12:00+5з4796100 1.9 1011886
15:00+6сз3593100 2.8 1012489
18:00+6сз1289100 0.3 1012386
21:00+5зсз2493100 0.6 1013136
21 апреля, ср
ср2100:00+5зюз2493100 1.6 1014225
03:00+5зюз1296100 3.8 1015326
06:00+4зюз3895100 2.4 1015582
09:00+6з4885100 2.9 1016881
12:00+9зсз566866 0.3 10161320
15:00+8сз578384 1.4 1017814
18:00+9зсз457249 0.6 1017997
21:00+5юз33875 0.7 102026